Home   Weather   Malmö   Past weeks
Flag for Sweden

Past Weather in Malmö, Sweden — Yesterday and Last 2 Weeks

Now
73 °F

Sunny.


Feels Like: 76 °F
Forecast: 73 / 64 °F
Wind: 10 mph from Southeast

Location: Malmo / Sturup

Current Time: Jun 18, 2019 at 7:08:33 pm

Latest Report: Jun 18, 2019 at 6:20 pm


Visibility: 10 mi

Pressure: 30.01 "Hg

Humidity: 61%

Dew Point: 59 °F

Location of MalmöLocation

Past Weather in Malmö — Graph

°F

Malmö Temperature Yesterday

Maximum temperature yesterday: 72 °F (at 2:50 pm)
Minimum temperature yesterday: 50 °F (at 2:20 am)
Average temperature yesterday: 62 °F

High & Low Weather Summary for the Past Weeks

 TemperatureHumidityPressure
High81 °F (Jun 5, 3:50 pm)100% (Jun 3, 10:50 pm)30.21 "Hg (Jun 3, 10:50 pm)
Low48 °F (Jun 10, 12:20 am)43% (Jun 4, 1:20 pm)29.71 "Hg (Jun 13, 12:20 am)
Average63 °F76%29.98 "Hg
* Reported Jun 3 5:20 pm — Jun 18 5:50 pm, Malmö. Weather by CustomWeather, © 2019

Note: Actual official high and low records may vary slightly from our data, if they occured in-between our weather recording intervals... More about our weather records

Advertising

Malmö Weather History for the Previous 24 Hours

Scroll right to see more
 ConditionsComfort  
Time TempWeatherWind HumidityBarometerVisibility
5:50 pm
Tue, Jun 18
72 °FSunny.12 mph65%30.01 "Hg10 mi
5:20 pm73 °FSunny.12 mph53%30.01 "Hg10 mi
4:50 pm73 °FSunny.13 mph57%30.01 "Hg10 mi
4:20 pm73 °FSunny.13 mph61%30.04 "Hg10 mi
3:50 pm72 °FSunny.12 mph61%30.04 "Hg10 mi
3:20 pm72 °FSunny.12 mph61%30.07 "Hg10 mi
2:50 pm72 °FSunny.13 mph57%30.07 "Hg10 mi
2:20 pm72 °FSunny.13 mph57%30.07 "Hg10 mi
1:50 pm72 °FSunny.14 mph53%30.07 "Hg10 mi
1:20 pm72 °FSunny.13 mph53%30.07 "Hg10 mi
12:50 pm70 °FSunny.14 mph57%30.07 "Hg10 mi
12:20 pm72 °FSunny.14 mph57%30.07 "Hg10 mi
11:50 am70 °FSunny.15 mph57%30.09 "Hg10 mi
11:20 am70 °FSunny.12 mph57%30.09 "Hg10 mi
10:50 am68 °FSunny.12 mph60%30.09 "Hg10 mi
10:20 am68 °FSunny.15 mph64%30.09 "Hg10 mi
9:50 am68 °FSunny.14 mph60%30.09 "Hg10 mi
9:20 am66 °FSunny.12 mph64%30.09 "Hg10 mi
8:50 am66 °FSunny.13 mph68%30.12 "Hg10 mi
8:20 am64 °FSunny.10 mph73%30.12 "Hg10 mi
7:50 am64 °FSunny.9 mph73%30.12 "Hg10 mi
7:20 am63 °FSunny.9 mph77%30.12 "Hg10 mi
6:50 am61 °FSunny.7 mph83%30.12 "Hg10 mi
6:20 am59 °FSunny.5 mph88%30.12 "Hg10 mi
5:50 am57 °FSunny.5 mph88%30.12 "Hg10 mi
5:20 am52 °FSunny.3 mph100%30.12 "Hg10 mi
4:50 am52 °FSunny.5 mph94%30.12 "Hg10 mi
4:20 am50 °FClear.3 mph100%30.12 "Hg10 mi
3:50 am50 °FClear.3 mph100%30.15 "Hg10 mi
3:20 am52 °FClear.3 mph94%30.15 "Hg10 mi
2:50 am52 °FClear.5 mph100%30.15 "Hg10 mi
2:20 am52 °FClear.No wind94%30.12 "Hg10 mi
1:50 am52 °FClear.2 mph94%30.15 "Hg10 mi
1:20 am52 °FClear.3 mph100%30.12 "Hg10 mi
12:50 am54 °FClear.3 mph94%30.15 "Hg10 mi
12:20 am54 °FClear.3 mph94%30.15 "Hg10 mi
11:50 pm
Mon, Jun 17
54 °FClear.2 mph94%30.15 "Hg10 mi
11:20 pm54 °FClear.2 mph100%30.15 "Hg10 mi
10:50 pm55 °FClear.3 mph94%30.15 "Hg10 mi
10:20 pm57 °FClear.3 mph88%30.15 "Hg10 mi
9:50 pm59 °FSunny.5 mph82%30.15 "Hg10 mi
9:20 pm63 °FSunny.7 mph68%30.15 "Hg10 mi
8:50 pm64 °FSunny.7 mph68%30.15 "Hg10 mi
8:20 pm66 °FSunny.8 mph64%30.15 "Hg10 mi
7:50 pm66 °FPassing clouds.8 mph64%30.15 "HgN/A
7:20 pm68 °FSunny.10 mph60%30.15 "Hg10 mi
Weather by CustomWeather, © 2019

See weather overview